Probability
3 0 3 10 10 10 6 13 13 3 0 0 0 0 0 0 0 0 0 0 0 0 0 0 3 3 3 3 0 0 0 0 0 0 0 0 0 0 0 0 0 0 0
0 0 0 3 0 10 6 6 6 0 0 0 0 0 0 0 0 0 0 0 0 0 0 0 3 3 3 3 0 0 0 0 0 0 0 0 0 0 0 0 0 0 0
0 0 0 0 3 3 3 3 3 3 0 0 0 0 0 0 0 0 0 0 0 0 0 0 0 3 3 0 0 0 0 0 0 0 0 0 0 0 0 0 0 0 0
0 0 0 0 0 0 0 0 0 0 0 0 0 0 0 0 0 0 0 0 0 0 0 0 0 0 0 0 0 0 0 0 0 0 0 0 0 0 0 0 0 0 0
0 0 0 0 0 0 0 0 0 0 0 0 0 0 0 0 0 0 0 0 0 0 0 0 0 0 0 0 0 0 0 0 0 0 0 0 0 0 0 0 0 0 0
0 0 0 0 0 0 0 0 3 0 0 0 0 0 0 0 0 0 0 0 0 0 0 0 0 0 0 0 0 0 0 0 0 0 0 0 0 0 0 0 0 0 0
0 0 0 0 0 0 0 0 0 0 0 0 0 0 0 0 0 0 0 0 0 0 0 0 0 0 0 0 0 0 0 0 0 0 0 0 0 0 0 0 0 0 0
0 0 0 0 0 0 0 0 0 0 0 0 0 0 0 0 0 0 0 0 0 0 0 0 0 0 0 0 0 0 0 0 0 0 0 0 0 0 0 0 0 0 0
0 0 0 0 0 0 0 0 0 0 0 0 0 0 0 0 0 0 0 0 0 0 0 0 0 0 0 0 0 0 0 0 0 0 0 0 0 0 0 0 0 0 0
0 0 0 0 0 0 0 0 0 0 0 0 0 0 0 0 0 0 0 0 0 0 0 0 0 0 0 0 0 0 0 0 0 0 0 0 0 0 0 0 0 0 0
0 0 0 0 0 0 0 0 0 0 0 0 0 0 0 0 0 0 0 0 0 0 0 0 0 0 0 0 0 0 0 0 0 0 0 0 0 0 0 0 0 0 0
0 0 0 0 0 0 0 0 0 0 0 0 0 0 0 0 0 0 0 0 0 0 0 0 0 0 0 0 0 0 0 0 0 0 0 0 0 0 0 0 0 0 0
0 0 0 0 0 0 0 0 0 0 0 0 0 0 0 0 0 0 0 0 0 0 0 0 0 0 0 0 0 0 0 0 0 0 0 0 0 0 0 0 0 0 0
0 0 0 0 0 0 0 0 0 0 0 0 0 0 0 0 0 0 0 0 0 0 0 0 0 0 0 0 0 0 0 0 0 0 0 0 0 0 0 0 0 0 0
0 0 0 0 0 0 0 0 0 0 0 0 0 0 0 0 0 0 0 0 0 0 0 0 0 0 0 0 0 0 0 0 0 0 0 0 0 0 0 0 0 0 0
0 0 0 0 0 0 0 0 0 0 0 0 0 0 0 0 0 0 0 0 0 0 0 0 0 0 0 0 0 0 0 0 0 0 0 0 0 0 0 0 0 0 0
0 0 0 0 0 0 0 0 0 0 0 0 0 0 0 0 0 0 0 0 0 0 0 0 0 0 0 0 0 0 0 0 0 0 0 0 0 0 0 0 0 0 0
0 0 0 0 0 0 0 0 0 0 0 0 0 0 0 0 0 0 0 0 0 0 0 0 0 0 0 0 0 0 0 0 0 0 0 0 0 0 0 0 0 0 0
0 0 0 0 0 0 0 0 0 0 0 0 0 0 0 0 0 0 0 0 0 0 0 0 0 0 0 0 0 0 0 0 0 0 0 0 0 0 0 0 0 0 0
0 0 0 0 0 0 0 0 0 0 0 0 0 0 0 0 0 0 0 0 0 0 0 0 0 0 0 0 0 0 0 0 0 0 0 0 0 0 0 0 0 0 0
0 0 0 0 0 0 0 0 0 0 0 0 0 0 0 0 0 0 0 0 0 0 0 0 0 0 0 0 0 0 0 0 0 0 0 0 0 0 0 0 0 0 0
0 0 0 0 0 0 0 0 0 0 0 0 0 0 0 0 0 0 0 0 0 0 0 0 0 0 0 0 0 0 0 0 0 0 0 0 0 0 0 0 0 0 0
0 0 0 0 0 0 0 0 0 0 0 0 0 0 0 0 0 0 0 0 0 0 0 0 0 0 0 0 0 0 0 0 0 0 0 0 0 0 0 0 0 0 0
0 0 0 0 0 0 0 0 0 0 0 0 0 0 0 0 0 0 0 0 0 0 0 0 0 0 0 0 0 0 0 0 0 0 0 0 0 0 0 0 0 0 0
0 0 0 0 0 0 0 0 0 0 0 0 0 0 0 0 0 0 0 0 0 0 0 0 0 0 0 0 0 0 0 0 0 0 0 0 0 0 0 0 0 0 0
0 0 0 0 0 0 0 0 0 0 0 0 0 0 0 0 0 0 0 0 0 0 0 0 0 0 0 0 0 0 0 0 0 0 0 0 0 0 0 0 0 0 0
Height
5774 5776 5777 5778 5780 5782 5784 5785 5787 5788 5790 5791 5793 5794 5795 5796 5797 5798 5799 5800 5800 5801 5801 5801 5801 5801 5801 5800 5799 5797 5796 5794 5792 5790 5788 5785 5782 5779 5776 5773 5769 5766 5762
5763 5764 5766 5767 5769 5770 5772 5774 5776 5778 5780 5782 5783 5785 5786 5787 5789 5790 5791 5792 5793 5794 5794 5795 5795 5794 5794 5794 5793 5791 5790 5788 5786 5784 5782 5779 5776 5773 5770 5767 5763 5759 5755
5750 5752 5753 5755 5757 5759 5761 5762 5764 5766 5768 5771 5773 5775 5777 5778 5780 5781 5783 5784 5785 5786 5787 5787 5788 5787 5787 5787 5786 5785 5784 5782 5780 5778 5776 5773 5770 5767 5764 5760 5756 5752 5748
5735 5737 5739 5742 5744 5746 5748 5750 5751 5754 5756 5759 5762 5764 5767 5769 5770 5772 5774 5775 5777 5778 5779 5780 5780 5780 5780 5780 5779 5778 5777 5776 5774 5772 5769 5766 5764 5760 5757 5753 5749 5745 5741
5719 5722 5724 5727 5729 5731 5734 5736 5738 5741 5744 5747 5750 5753 5755 5758 5760 5762 5764 5766 5768 5769 5771 5771 5772 5772 5772 5772 5772 5771 5770 5769 5767 5765 5763 5760 5757 5754 5750 5746 5742 5738 5733
5703 5705 5708 5711 5713 5716 5719 5721 5724 5727 5730 5733 5736 5740 5743 5746 5750 5752 5754 5756 5758 5760 5761 5763 5764 5764 5765 5764 5764 5763 5763 5761 5760 5758 5756 5753 5750 5746 5743 5739 5734 5730 5725
5686 5688 5691 5694 5696 5699 5703 5706 5708 5712 5715 5719 5722 5726 5730 5734 5738 5741 5744 5746 5748 5750 5752 5753 5755 5756 5756 5756 5756 5755 5755 5754 5752 5750 5748 5745 5742 5739 5735 5731 5727 5722 5717
5668 5670 5673 5675 5679 5682 5686 5689 5693 5696 5700 5704 5708 5711 5716 5721 5725 5729 5732 5736 5738 5740 5742 5744 5745 5747 5748 5748 5748 5748 5747 5746 5744 5742 5740 5737 5734 5731 5727 5723 5719 5714 5709
5649 5651 5654 5657 5660 5663 5668 5672 5676 5680 5685 5689 5693 5698 5702 5708 5714 5718 5721 5725 5728 5730 5732 5734 5735 5737 5738 5739 5740 5739 5739 5738 5736 5734 5732 5729 5726 5723 5719 5715 5710 5705 5700
5630 5632 5635 5638 5641 5645 5650 5655 5659 5663 5668 5673 5678 5683 5689 5695 5700 5706 5710 5714 5717 5720 5722 5724 5726 5727 5729 5730 5731 5731 5730 5729 5728 5726 5724 5721 5718 5715 5711 5706 5702 5697 5691
5612 5613 5615 5618 5622 5627 5632 5637 5641 5646 5651 5657 5663 5669 5674 5680 5686 5692 5698 5703 5706 5708 5711 5713 5715 5717 5719 5720 5721 5722 5721 5720 5719 5718 5715 5713 5710 5706 5702 5698 5693 5688 5682
5594 5595 5596 5599 5603 5608 5614 5619 5624 5629 5635 5641 5647 5654 5660 5666 5673 5679 5685 5690 5693 5697 5700 5702 5705 5707 5709 5710 5712 5712 5712 5712 5710 5709 5707 5704 5701 5698 5694 5690 5685 5679 5673
5577 5578 5579 5582 5586 5590 5596 5601 5607 5613 5619 5625 5632 5639 5646 5653 5659 5666 5671 5677 5681 5686 5688 5692 5694 5697 5699 5701 5703 5703 5703 5702 5701 5700 5698 5696 5692 5689 5685 5681 5676 5670 5664
5561 5562 5564 5566 5570 5574 5579 5585 5592 5598 5604 5611 5617 5625 5632 5639 5646 5652 5659 5665 5669 5674 5678 5682 5684 5687 5689 5691 5693 5693 5693 5693 5693 5691 5690 5687 5684 5680 5677 5672 5667 5661 5655
5547 5548 5549 5552 5556 5560 5565 5571 5577 5583 5590 5597 5604 5611 5619 5626 5633 5639 5646 5652 5658 5662 5668 5671 5674 5677 5679 5681 5683 5684 5685 5684 5684 5683 5681 5678 5675 5672 5668 5663 5658 5652 5646
5533 5535 5537 5539 5543 5547 5551 5557 5563 5570 5577 5584 5591 5598 5606 5614 5621 5627 5634 5640 5645 5651 5657 5662 5664 5667 5670 5672 5673 5675 5675 5675 5675 5674 5672 5669 5666 5663 5659 5654 5649 5643 5636
5521 5523 5525 5527 5531 5535 5539 5544 5551 5558 5565 5572 5579 5587 5594 5602 5609 5616 5623 5628 5634 5640 5645 5651 5654 5657 5660 5663 5664 5666 5666 5666 5666 5665 5663 5660 5657 5654 5650 5645 5640 5634 5627
5510 5511 5513 5516 5519 5523 5528 5533 5540 5547 5554 5562 5569 5576 5584 5592 5599 5606 5612 5618 5623 5629 5634 5640 5644 5648 5651 5653 5655 5657 5657 5657 5657 5656 5654 5651 5649 5645 5641 5636 5631 5624 5617
5499 5500 5503 5505 5509 5513 5518 5524 5530 5537 5544 5551 5558 5566 5574 5582 5589 5596 5602 5607 5614 5619 5624 5630 5634 5638 5642 5644 5646 5647 5648 5649 5648 5647 5645 5643 5640 5637 5632 5627 5621 5615 5608
5488 5491 5493 5497 5500 5504 5509 5514 5520 5527 5534 5542 5549 5557 5565 5573 5580 5587 5593 5599 5605 5610 5615 5620 5625 5629 5632 5635 5637 5639 5640 5640 5640 5639 5637 5635 5632 5628 5623 5618 5613 5606 5599
5479 5481 5484 5488 5492 5496 5501 5506 5513 5519 5526 5533 5540 5548 5556 5564 5571 5577 5584 5590 5596 5601 5606 5611 5615 5619 5623 5626 5629 5630 5631 5631 5631 5630 5629 5626 5624 5620 5615 5609 5603 5597 5590
5469 5472 5476 5480 5484 5489 5494 5499 5505 5511 5518 5524 5532 5540 5548 5555 5562 5568 5575 5582 5588 5593 5598 5602 5606 5611 5615 5618 5620 5622 5623 5623 5623 5623 5620 5618 5614 5610 5606 5600 5594 5588 5581
5461 5463 5467 5472 5477 5482 5487 5492 5497 5504 5510 5517 5525 5533 5540 5547 5554 5560 5567 5573 5579 5585 5589 5594 5598 5602 5606 5610 5612 5614 5615 5615 5615 5613 5611 5609 5605 5601 5597 5592 5586 5580 5573
5453 5456 5460 5465 5470 5476 5481 5486 5491 5497 5503 5510 5518 5525 5533 5540 5546 5553 5559 5565 5571 5577 5581 5586 5590 5595 5598 5601 5603 5605 5606 5607 5606 5605 5603 5600 5597 5593 5588 5583 5578 5572 5565
5446 5450 5453 5458 5464 5470 5474 5480 5485 5491 5497 5504 5512 5519 5525 5532 5539 5545 5551 5558 5564 5569 5573 5578 5583 5586 5590 5593 5595 5597 5598 5598 5598 5597 5595 5592 5589 5584 5580 5575 5570 5564 5557
5439 5444 5448 5453 5458 5463 5468 5473 5479 5485 5491 5498 5505 5512 5519 5525 5532 5538 5544 5550 5556 5562 5566 5571 5575 5578 5582 5585 5587 5589 5590 5591 5590 5589 5587 5584 5581 5577 5573 5568 5562 5556 5550
Wind_Speed
50 50 50 50 49 47 46 46 45 45 44 43 43 42 41 40 39 38 37 36 35 34 33 32 31 31 30 29 29 28 28 28 28 28 29 29 30 30 31 32 33 34 35
53 53 52 52 51 50 49 49 48 48 48 46 45 45 44 43 42 41 40 39 37 36 35 34 33 33 32 31 30 30 29 29 29 29 30 30 31 32 33 34 35 35 36
55 55 54 54 54 53 52 51 51 51 51 50 48 48 46 45 44 43 42 41 40 38 37 37 35 34 33 33 32 31 31 31 31 31 31 32 32 33 34 35 36 37 38
57 57 57 56 56 55 54 54 54 54 54 52 51 50 48 47 46 45 44 43 42 41 39 38 37 36 35 34 34 34 33 32 33 33 33 33 34 35 36 37 38 38 39
60 59 59 59 58 58 57 56 56 55 56 54 53 52 51 49 48 46 46 45 43 43 42 40 39 37 37 36 35 35 34 34 34 34 34 34 35 36 37 38 39 40 41
62 62 62 61 60 59 59 59 58 58 58 56 55 55 54 52 50 49 48 46 44 44 43 41 40 39 38 38 37 36 36 35 35 35 35 36 37 38 38 39 40 41 42
63 64 63 62 62 61 61 60 59 59 60 59 58 57 56 54 52 50 50 47 45 45 43 43 42 40 40 39 38 38 37 36 36 37 36 37 38 39 39 40 41 42 43
64 65 64 64 63 63 62 61 61 61 61 61 60 58 58 56 54 53 51 49 48 47 45 44 43 42 41 40 39 38 37 37 37 38 38 38 39 40 40 41 42 43 44
64 65 64 64 64 64 63 63 62 62 61 61 61 60 59 58 56 54 52 50 50 48 46 45 44 43 42 41 40 40 39 38 39 39 39 39 40 41 41 42 43 44 45
63 64 64 65 64 64 63 63 63 62 61 61 61 61 61 58 57 55 54 52 51 50 48 47 46 45 43 42 41 41 40 39 39 39 40 40 40 40 41 42 43 44 46
61 61 62 64 64 63 63 64 64 62 61 61 62 61 61 59 57 56 54 53 52 50 50 49 47 46 44 43 42 41 40 39 40 40 40 40 40 41 41 42 43 45 46
58 59 60 61 61 62 63 63 63 62 61 61 62 61 61 60 58 56 54 53 52 51 50 49 48 47 45 44 43 41 41 40 40 40 39 40 40 40 42 43 44 45 46
54 55 56 57 58 59 61 61 61 61 60 60 61 60 59 60 58 56 54 52 53 53 51 49 48 47 45 44 43 41 41 39 39 39 40 40 40 41 42 44 45 46 47
50 51 53 54 55 56 58 59 59 59 59 58 58 59 58 58 57 55 54 53 54 52 51 48 47 46 44 43 42 41 40 39 39 39 40 40 41 42 43 45 46 46 48
47 48 49 50 51 52 55 57 57 57 57 57 57 58 57 58 56 55 54 54 54 53 51 47 46 44 43 42 41 40 39 38 38 39 39 40 41 42 44 44 45 47 48
45 45 45 47 48 50 52 54 54 54 55 54 55 55 56 56 54 54 53 54 53 51 50 47 47 44 43 41 40 40 39 38 38 38 39 40 41 42 43 44 46 47 49
44 44 43 44 46 47 50 50 50 50 50 51 52 52 53 53 52 52 52 52 51 51 49 47 46 45 43 41 41 40 39 38 37 38 39 40 40 41 43 44 46 48 50
41 42 41 41 43 45 47 48 48 49 48 48 49 49 50 50 49 49 49 49 49 49 48 47 46 45 43 41 41 39 37 37 37 37 38 38 39 41 42 44 46 48 49
40 40 40 40 41 42 45 46 46 47 46 46 46 48 49 49 48 47 47 47 47 46 45 45 45 44 43 41 39 38 37 37 37 37 37 37 39 41 42 44 46 47 48
39 39 39 38 38 39 42 43 44 44 43 43 45 47 47 46 46 45 45 44 44 43 43 44 44 43 42 39 37 36 37 37 37 36 36 37 39 40 42 44 46 46 47
37 37 38 37 37 38 40 40 41 41 42 42 43 45 44 43 44 43 43 42 41 40 42 42 42 41 39 37 36 36 36 35 36 35 36 37 38 40 42 43 44 45 46
35 35 36 36 35 37 38 38 39 40 40 41 42 44 43 42 43 42 41 40 39 38 40 40 40 40 37 35 35 34 33 33 34 34 36 36 38 40 41 42 42 44 46
32 32 34 36 35 35 36 36 37 38 39 39 41 42 42 43 42 41 40 39 39 38 37 37 38 37 36 36 35 33 32 32 32 34 35 36 38 39 40 41 42 43 44
31 31 33 34 34 33 35 36 37 37 37 37 39 40 40 41 41 39 38 38 38 36 36 36 36 35 36 35 34 33 32 33 33 33 34 36 37 38 38 39 40 42 43
30 31 32 33 34 34 34 35 36 35 36 37 37 38 38 39 38 37 37 36 36 36 36 35 35 34 33 32 32 32 32 33 32 33 34 34 35 36 37 38 39 40 42
27 30 31 32 34 34 33 33 34 34 34 35 36 37 37 37 37 36 35 34 34 34 35 35 33 32 30 30 30 30 31 31 32 32 33 33 34 35 36 36 37 40 41
Wind_Direction
257 257 256 255 254 254 254 255 255 255 255 255 256 257 257 257 256 257 258 259 260 261 262 264 266 268 271 274 277 280 283 286 288 292 295 297 299 301 303 305 306 306 307
257 257 257 256 255 255 256 256 256 255 255 255 256 256 257 258 257 257 257 257 259 259 261 262 265 267 269 272 275 278 281 285 287 291 294 296 298 300 302 303 304 305 306
256 256 257 256 255 255 256 255 255 255 255 255 255 255 255 256 256 257 256 256 257 258 260 261 264 266 267 270 273 276 280 283 286 289 292 294 297 299 301 303 304 305 306
257 257 257 256 255 255 255 255 256 255 254 254 253 254 254 254 255 256 257 257 256 256 258 260 263 264 266 268 271 274 277 281 284 287 290 293 296 298 300 302 304 305 305
258 258 257 257 255 254 254 254 256 255 254 252 252 252 252 253 253 254 256 256 256 256 256 259 261 262 264 266 269 272 276 279 282 285 289 291 295 298 299 301 303 304 305
259 259 257 257 255 254 253 253 254 254 253 252 251 251 251 251 251 252 255 254 255 256 256 257 259 261 263 265 268 271 275 277 280 284 287 291 294 297 299 300 302 304 305
260 259 257 256 255 254 253 252 252 252 252 251 249 250 250 249 250 251 252 253 254 255 256 257 257 259 262 264 267 270 273 276 279 283 286 290 293 296 298 300 302 303 305
261 260 258 256 255 254 252 251 250 250 251 250 248 248 248 247 248 250 251 251 253 255 256 255 256 258 261 264 266 269 272 275 279 282 286 289 292 295 297 299 301 303 305
263 260 259 257 255 254 251 250 249 249 249 248 247 247 247 246 247 248 250 251 253 255 256 254 255 256 260 262 265 268 271 274 278 281 285 288 291 294 297 300 301 303 304
263 261 259 256 254 253 250 248 247 248 248 247 246 245 245 245 245 246 248 250 252 253 255 255 254 255 258 261 263 267 270 274 277 280 284 288 291 293 296 299 302 303 304
263 261 259 256 253 251 249 247 246 246 246 246 244 243 243 244 244 245 247 248 250 252 254 254 255 255 257 259 262 266 269 273 276 280 283 287 290 292 296 299 301 303 305
263 261 259 255 252 250 247 246 245 245 244 244 243 242 243 243 242 244 246 246 248 249 252 253 254 254 257 259 260 265 269 272 276 279 283 286 289 292 295 298 301 303 305
263 260 257 254 250 249 245 243 243 242 243 243 241 241 242 242 240 241 242 245 246 248 251 252 253 253 256 257 260 264 268 271 275 279 282 286 290 293 296 298 300 303 305
262 258 255 252 249 247 244 242 240 240 241 241 240 239 240 239 239 239 240 243 245 247 250 250 251 252 253 255 258 263 266 271 275 278 283 287 290 293 295 298 301 303 305
261 257 254 250 247 245 242 241 240 239 239 239 239 239 238 237 237 237 238 241 244 245 247 249 250 251 253 255 258 262 266 270 274 279 283 287 290 292 295 298 301 304 306
259 257 253 250 246 244 242 239 239 239 238 238 238 237 237 235 235 236 238 240 242 244 246 247 249 249 252 256 258 262 266 270 274 278 283 287 289 293 296 299 302 304 306
258 255 253 250 245 242 239 237 237 237 236 236 236 235 234 233 234 235 237 239 242 244 246 246 247 249 252 256 260 264 266 269 273 278 283 287 289 292 296 300 302 304 306
257 253 251 247 243 241 238 235 235 235 235 235 233 231 230 230 231 234 237 239 241 243 246 246 247 250 251 255 259 262 265 270 274 278 283 287 290 293 296 300 303 304 307
255 251 248 246 242 240 236 234 233 234 233 232 230 228 227 229 230 233 237 239 241 242 243 245 246 248 249 253 256 260 265 270 273 279 284 287 291 294 297 300 303 305 308
254 250 247 244 240 238 234 233 232 231 232 229 228 227 228 229 229 233 235 237 239 241 243 244 245 247 249 252 255 261 265 269 274 279 284 288 292 295 298 301 304 306 309
252 249 245 242 240 236 233 233 230 230 228 228 228 225 226 227 229 231 233 235 237 241 243 243 245 247 248 251 255 260 266 271 275 280 285 289 293 296 299 302 305 308 310
249 248 244 239 238 236 233 231 230 229 228 228 226 224 227 227 229 230 231 233 237 240 241 243 245 245 246 250 254 259 265 270 276 281 286 289 293 298 301 303 306 309 311
248 244 240 236 235 234 230 229 227 225 225 224 224 225 226 227 228 230 231 233 236 237 240 242 244 244 246 250 255 260 266 272 278 283 287 290 294 298 302 304 306 309 312
243 239 236 232 231 231 229 226 225 225 224 221 221 222 224 226 226 228 231 232 233 234 237 240 242 244 247 251 255 261 268 273 277 283 287 292 295 299 303 304 307 311 314
239 235 231 230 229 228 227 225 223 223 220 218 219 221 223 224 225 228 230 230 231 233 235 238 241 243 245 249 255 261 267 272 278 283 288 292 296 300 303 306 309 312 315
236 229 228 229 229 228 227 224 223 223 219 218 217 219 221 223 224 227 228 228 230 233 235 236 239 241 244 248 255 261 267 273 278 284 289 294 298 301 304 307 309 313 315